Wind_Speed
21 24 25 27 28 27 30 31 30 30 29 29 27 25 25 26 28 29 31 33 33 32 31 29 27 26 25 23 21 19 17 15 17 18 19 20 21 21 22 22 22 22 23 23 23 22 21 21 20 18 18 17 16 16 15 15 15 14 14 14 14 14 14 13 13 14 14 15 15 16 16 17 17 17 17 17 18 18 18 18 19 21 23 24 24
20 24 25 26 27 27 29 30 30 32 31 30 29 27 26 26 27 28 30 32 33 33 32 30 29 28 27 25 23 22 19 17 18 19 18 19 20 20 22 23 23 22 23 24 24 23 22 21 20 19 18 18 17 17 17 16 16 15 15 15 15 15 15 14 14 14 15 15 15 16 16 17 17 17 17 17 18 19 19 18 19 21 23 23 24
19 21 25 27 28 27 28 28 29 34 34 33 32 30 28 27 27 28 29 30 32 33 33 32 31 30 29 27 25 23 22 20 20 20 19 19 19 20 21 23 23 23 23 24 25 23 22 21 21 20 19 18 18 18 18 18 17 17 16 17 17 16 16 15 15 15 15 15 16 16 17 17 17 17 17 17 17 18 18 18 19 21 23 23 23
17 17 22 27 28 27 27 27 27 32 35 34 33 32 31 29 27 27 28 29 30 32 33 33 32 31 30 28 26 25 24 22 22 22 21 20 20 20 21 22 23 23 23 24 25 24 23 22 21 21 20 19 19 19 19 19 19 18 18 18 18 17 16 16 17 17 16 16 17 17 17 17 17 17 17 17 17 18 18 17 18 21 22 22 23
16 15 20 25 26 26 28 27 25 28 34 34 34 35 34 31 28 27 28 29 29 31 33 33 33 32 31 30 29 28 27 24 24 24 23 23 22 21 21 22 23 23 24 24 25 24 23 22 22 22 21 20 20 20 20 20 20 20 20 20 19 18 17 17 17 18 18 17 18 18 18 18 18 17 17 16 17 17 17 16 18 20 22 23 24
16 15 18 23 25 25 25 26 22 21 28 33 35 36 36 34 30 29 28 29 29 30 31 33 34 34 32 32 31 31 29 27 26 25 25 25 23 23 22 23 23 23 24 24 24 24 24 23 23 23 22 22 21 21 21 21 21 21 21 21 20 19 19 19 18 18 19 19 19 19 19 19 19 19 18 17 16 17 17 17 18 20 23 24 25
16 16 18 22 26 25 22 23 22 18 19 25 30 33 35 36 34 31 31 30 29 29 30 32 33 34 34 33 32 32 31 29 29 27 27 26 25 25 24 23 24 24 25 25 25 25 25 25 24 24 24 23 23 23 22 22 22 22 22 22 21 20 20 20 20 20 20 20 20 20 20 20 20 20 19 17 16 17 17 17 18 20 23 26 25
17 18 19 20 23 23 21 21 22 22 21 20 24 27 30 36 36 33 31 31 29 29 29 30 32 33 34 34 34 33 32 31 30 30 29 28 27 27 26 25 25 25 26 26 26 26 26 26 26 26 26 25 25 24 24 23 23 23 23 22 22 21 21 21 21 21 21 22 21 21 22 21 21 21 21 19 18 17 18 18 19 20 23 26 25
18 19 20 21 22 21 19 20 22 24 25 23 25 25 24 28 34 35 33 31 30 29 29 30 31 32 33 34 35 34 33 33 32 32 31 30 29 29 28 27 27 27 27 28 28 28 28 28 28 27 27 27 26 25 25 25 24 24 24 23 23 22 22 23 23 23 23 23 23 23 23 23 23 22 22 21 20 19 19 20 20 21 23 25 25
20 21 21 22 23 22 19 20 21 22 24 24 25 27 25 23 25 30 34 33 32 31 30 30 30 31 32 33 34 34 33 34 34 34 33 32 31 31 30 30 29 29 29 29 29 29 29 29 29 29 29 28 28 26 26 26 26 25 25 24 23 23 24 24 24 24 24 24 24 25 25 24 24 23 23 23 22 20 20 21 21 22 23 24 24
21 22 23 23 24 25 23 21 21 22 24 24 22 24 27 27 25 26 30 34 34 33 31 30 30 31 31 32 33 33 33 33 35 35 35 34 33 33 32 32 31 31 30 30 30 30 30 30 30 30 30 29 28 28 27 27 27 27 26 25 25 25 25 25 25 25 25 25 25 26 26 26 25 24 24 23 23 22 22 22 22 22 23 23 24
22 23 24 25 26 27 26 24 24 24 26 26 24 23 25 28 29 28 27 31 33 33 33 32 32 32 32 31 32 33 33 33 34 35 36 36 36 35 34 34 33 33 32 32 32 31 31 31 31 31 31 30 29 29 29 29 29 28 27 27 26 26 25 25 26 27 26 26 27 27 27 26 25 25 24 24 23 22 22 23 23 23 23 23 23
23 23 24 26 27 28 28 27 26 26 27 27 27 27 26 26 29 30 29 30 32 34 35 35 35 34 33 32 32 33 33 33 33 34 36 37 37 36 36 36 35 35 35 34 33 32 32 32 32 31 31 31 31 31 31 30 30 30 29 28 28 27 26 26 26 27 27 27 28 28 28 27 26 25 25 25 24 23 23 24 24 24 23 22 22
23 23 24 24 26 27 28 28 28 28 28 29 29 29 28 27 27 29 30 31 33 34 36 37 37 37 37 35 33 33 34 33 32 33 35 37 37 37 37 37 37 37 37 36 35 34 34 33 33 33 32 32 32 32 32 32 32 32 31 30 29 29 28 27 27 28 29 28 29 29 29 28 27 26 26 26 25 25 24 24 24 23 22 21 21
23 23 24 24 24 25 26 27 28 29 30 30 31 31 31 30 29 30 30 31 31 33 35 38 40 40 40 37 36 36 35 34 34 34 36 37 38 38 38 38 38 38 38 38 37 36 36 35 35 35 34 33 33 33 33 33 33 34 33 32 32 31 30 29 29 29 30 29 30 30 30 30 29 28 27 26 26 25 24 24 23 22 21 21 22
23 23 24 23 24 24 24 25 26 28 29 30 31 32 32 33 32 32 33 32 31 32 34 37 40 42 41 40 40 40 38 37 38 37 37 37 38 39 38 39 39 39 39 38 38 38 37 37 37 37 36 35 35 35 34 35 35 35 35 34 34 33 32 32 32 31 31 31 31 31 32 31 30 30 29 27 26 25 24 23 23 23 22 23 23
23 23 23 24 24 24 24 24 25 27 28 29 30 31 32 34 34 34 34 34 34 35 35 35 37 41 43 42 42 41 40 42 43 41 40 39 39 39 39 39 39 39 38 38 38 39 39 39 39 39 38 37 37 37 36 36 37 37 36 36 36 35 34 34 34 33 33 33 33 33 33 32 32 31 30 28 27 25 24 24 24 24 24 24 23
23 23 23 24 24 24 24 24 25 26 27 28 29 30 31 33 34 34 35 35 36 37 36 36 37 40 42 42 43 43 44 47 46 44 44 43 42 41 39 38 39 39 38 38 38 39 39 39 39 40 40 40 39 39 39 38 39 38 37 37 37 37 36 36 36 34 34 35 35 35 34 34 33 33 32 30 28 26 25 25 25 25 24 23 23
23 23 24 24 24 24 25 25 25 26 26 27 29 30 30 32 33 34 34 35 37 37 37 38 39 39 39 40 42 43 47 50 48 46 46 45 44 44 41 39 39 39 39 38 38 38 39 39 38 39 40 41 41 40 40 41 41 41 39 39 39 39 38 38 38 37 36 37 37 36 35 35 34 34 33 32 29 28 27 26 27 26 25 23 22
25 24 24 24 24 25 25 26 26 26 26 27 28 29 30 31 32 33 34 35 36 37 37 39 41 40 39 41 41 40 45 49 49 47 47 46 44 44 44 43 41 40 39 40 39 39 39 39 38 38 39 40 40 41 42 42 43 42 42 41 41 41 41 40 40 39 37 38 39 37 36 36 35 35 34 33 31 29 28 27 27 27 26 24 23
27 26 25 25 25 25 26 26 27 27 27 27 28 29 30 31 32 33 33 34 36 37 38 39 41 40 40 42 41 41 42 45 46 45 46 46 44 43 44 45 44 43 42 43 42 42 41 40 38 38 39 39 39 40 42 43 43 43 43 43 42 42 42 41 41 40 38 38 38 37 36 36 36 35 35 34 32 30 29 28 28 28 26 25 25
28 28 27 27 26 26 26 27 27 28 28 28 28 29 30 31 32 33 34 35 36 37 38 39 41 41 41 42 42 43 43 44 45 43 43 43 42 42 44 46 46 46 46 46 46 45 44 43 41 40 40 40 39 40 41 42 42 42 43 43 43 43 43 42 42 41 39 38 38 37 36 36 36 35 35 34 33 32 30 29 29 29 27 26 26
29 29 29 29 28 28 27 27 28 29 29 29 29 30 31 31 33 34 34 35 36 37 38 39 41 41 42 43 44 44 45 45 46 46 45 44 41 40 43 47 48 46 47 48 49 49 49 46 44 43 43 42 40 40 40 40 40 41 42 44 45 44 44 44 43 42 40 38 38 38 37 37 37 36 35 34 34 33 31 30 30 29 28 27 27
30 30 30 30 29 29 29 29 29 29 30 31 31 31 32 33 34 34 35 36 37 38 39 39 41 42 43 43 44 46 46 46 46 47 46 45 45 42 41 45 50 49 48 49 49 50 51 51 48 46 46 45 43 43 42 40 39 40 42 44 45 45 45 45 45 43 41 40 40 39 39 39 38 37 35 35 34 34 32 31 31 30 29 28 28
31 31 30 30 30 30 30 30 30 30 31 31 32 33 33 34 35 36 37 37 38 39 39 40 41 42 43 44 45 46 47 47 47 48 47 46 48 47 43 44 48 50 49 50 50 50 50 52 52 51 49 48 46 46 45 43 40 40 42 43 44 45 45 45 45 44 43 42 41 41 40 40 40 38 37 36 35 35 34 33 32 31 30 29 29
30 30 30 30 30 30 30 31 31 32 32 32 33 34 34 35 36 38 38 39 40 40 41 41 42 43 44 45 45 46 47 48 48 49 49 49 50 50 48 48 49 49 49 49 50 51 50 49 51 52 52 51 49 48 47 46 43 42 43 43 43 44 44 44 44 44 44 42 41 41 41 41 41 40 39 38 36 36 35 34 33 32 30 30 29
31 31 31 31 31 31 32 32 32 33 33 34 34 35 36 36 37 38 40 40 41 42 43 43 44 44 45 46 47 47 48 48 49 50 50 51 52 52 52 52 52 51 50 49 49 50 50 49 49 50 51 51 52 50 47 45 44 45 46 45 44 44 44 44 44 43 43 42 41 40 41 40 41 41 40 39 37 37 36 35 33 32 31 30 29
33 33 33 34 34 35 35 35 34 34 35 35 35 36 37 38 38 39 40 41 42 43 44 45 46 46 47 47 48 48 49 49 50 50 51 53 54 54 54 54 54 54 54 54 53 51 50 50 50 50 50 50 52 53 49 44 43 45 47 48 48 47 47 46 45 44 43 42 41 40 40 40 40 40 40 39 38 37 37 35 34 33 32 30 30
34 34 34 35 35 36 37 37 37 37 37 37 37 37 37 38 39 40 41 42 43 44 45 46 47 48 48 49 49 49 50 51 52 52 52 53 54 55 56 56 56 57 57 57 56 54 53 53 53 51 51 51 51 53 53 49 46 46 47 49 50 51 51 50 49 48 46 44 42 41 40 39 39 39 39 38 38 37 37 35 34 33 31 30 30
35 35 36 36 37 38 38 39 39 39 39 39 39 39 39 39 39 40 41 43 44 45 46 47 48 49 50 51 51 51 51 52 53 54 54 54 54 55 56 57 58 60 60 59 58 56 55 55 55 54 53 54 51 50 52 52 49 48 47 48 50 52 54 54 53 51 50 47 45 42 41 39 39 39 38 37 37 37 37 36 34 32 30 30 30
37 38 38 38 39 40 40 40 41 41 41 41 41 41 41 41 41 41 42 43 44 46 47 48 49 50 51 52 53 53 53 53 54 55 55 56 56 56 56 57 59 61 61 62 61 58 56 56 57 56 56 56 52 48 49 50 49 47 45 44 47 51 54 55 56 55 52 50 47 44 42 40 39 39 38 37 36 37 37 36 34 31 30 30 30
39 39 39 40 41 41 42 42 43 43 44 44 44 43 43 43 43 43 43 43 44 46 48 49 50 51 52 53 54 54 55 55 55 56 56 57 57 58 58 57 58 60 61 63 62 58 56 57 59 59 59 58 54 49 48 50 50 49 46 44 46 49 51 53 56 56 55 52 49 46 43 42 41 40 39 37 36 36 37 36 33 31 30 30 31
40 40 41 41 42 43 44 44 45 46 46 46 47 46 46 45 45 46 46 45 45 45 47 49 51 52 52 53 54 55 56 56 56 57 57 57 57 58 59 59 59 59 60 62 63 59 56 57 60 60 60 60 57 52 50 50 50 50 48 48 48 47 48 50 54 56 57 55 52 48 46 44 43 41 40 38 37 36 36 36 34 32 31 31 32
42 42 43 43 44 45 45 46 47 47 48 48 49 49 49 48 47 47 48 48 47 47 47 48 50 52 53 53 54 55 57 57 57 57 57 58 58 58 58 59 59 59 60 61 62 60 55 55 59 61 61 61 59 56 54 51 50 49 48 50 51 47 45 44 45 50 55 57 54 50 48 46 44 43 41 40 38 37 37 36 35 33 32 33 34
43 44 45 45 46 46 47 47 48 48 49 49 50 50 50 50 49 48 49 49 49 49 49 48 50 52 53 54 54 54 56 57 58 58 58 58 58 59 58 59 59 59 60 60 61 61 57 53 56 60 61 61 61 60 58 54 52 49 46 50 51 46 43 40 37 39 45 52 55 52 49 48 46 44 43 41 39 38 38 37 36 35 34 35 36
44 45 46 46 47 47 47 48 48 49 49 49 50 50 51 51 50 50 49 50 50 51 51 50 50 51 53 54 54 54 55 56 57 58 58 58 58 59 59 59 60 59 59 60 61 61 59 54 54 58 60 60 61 61 60 58 56 51 47 49 50 45 43 41 37 35 36 42 51 54 51 50 48 47 44 43 41 41 40 39 38 37 37 38 39
45 45 46 46 46 46 47 47 48 48 49 49 50 50 51 51 51 51 50 50 51 52 52 52 52 52 53 54 55 55 55 55 56 56 57 57 58 59 59 59 60 60 60 61 60 61 60 57 55 57 59 58 58 60 61 59 58 54 49 48 49 46 44 43 39 36 34 35 41 49 53 52 50 49 47 45 45 44 43 42 40 40 40 41 43
44 44 45 45 45 45 46 46 47 48 49 49 49 50 50 51 52 52 51 51 51 52 52 53 53 53 54 55 56 56 56 55 56 56 56 56 57 58 59 59 60 60 60 61 61 60 60 59 57 57 58 56 54 57 60 58 58 57 52 50 50 48 46 43 40 37 35 34 35 40 47 51 51 50 49 48 48 47 46 44 43 43 44 45 46
43 43 44 44 45 45 46 47 48 49 49 49 50 50 50 51 52 53 53 52 52 52 53 53 54 54 54 55 56 57 57 57 56 56 56 56 57 57 58 58 59 60 61 61 61 61 60 60 59 58 57 54 52 56 59 57 58 58 55 51 49 48 47 45 42 39 38 37 35 34 37 44 49 51 52 51 50 48 47 47 47 48 48 48 47
42 42 43 43 44 45 47 48 49 50 50 51 51 51 51 52 53 53 54 54 53 53 53 53 54 55 56 56 57 57 58 59 58 57 56 56 57 56 57 57 58 59 60 60 61 61 61 61 60 59 57 54 53 56 58 58 57 55 52 49 47 47 49 47 44 43 41 40 39 35 34 36 39 44 49 51 51 51 50 50 51 51 50 49 49
41 41 41 42 43 44 46 47 48 49 49 50 51 51 52 52 53 54 55 55 55 55 55 54 54 55 56 57 57 58 59 60 60 59 58 57 57 57 56 57 57 57 58 59 60 61 62 61 60 59 58 56 56 58 59 58 55 50 49 50 48 48 50 49 46 45 43 43 41 37 35 34 34 36 39 41 44 48 51 53 54 53 50 49 50
41 40 41 42 44 45 46 46 47 47 48 48 49 50 51 51 52 54 54 55 56 56 56 56 56 56 56 57 58 58 59 60 61 61 61 59 58 58 57 57 57 57 57 58 59 60 61 61 60 59 59 60 60 58 56 55 54 52 52 51 48 48 52 53 49 45 44 44 42 39 37 37 37 39 40 39 38 39 43 48 51 51 48 47 48
41 40 41 42 44 46 47 47 47 48 48 49 49 50 50 51 52 53 53 54 55 56 56 57 57 57 57 57 58 59 59 60 62 62 63 62 61 60 58 57 57 58 58 58 58 59 59 59 59 59 60 61 59 56 53 52 53 52 51 49 47 47 51 55 54 49 45 44 42 41 40 39 40 42 43 42 39 37 37 40 44 46 46 46 46
40 40 42 44 46 47 48 49 49 49 49 50 51 51 51 52 53 53 53 54 54 55 56 56 57 57 57 58 58 59 59 60 62 63 63 63 63 62 61 59 58 58 58 58 58 58 58 59 58 59 60 60 59 56 55 54 51 49 47 47 47 47 48 51 53 51 47 44 43 44 43 40 41 44 43 42 39 36 35 35 37 40 42 43 43
40 41 44 47 49 50 49 49 50 50 50 50 51 52 52 53 54 54 55 55 54 55 55 56 56 57 57 57 58 58 59 60 61 63 64 64 64 64 63 62 60 59 59 59 59 58 58 58 58 58 58 58 58 56 55 55 53 52 50 50 50 47 45 46 48 49 48 44 41 44 44 41 42 44 42 41 39 37 36 35 35 37 39 40 42
40 43 46 48 50 51 50 50 50 50 51 51 51 52 53 53 54 55 56 56 55 55 56 56 57 57 57 58 58 58 59 60 61 62 64 65 65 64 64 63 62 60 60 60 60 59 58 58 58 57 56 57 56 55 54 54 53 52 51 53 53 50 46 45 46 48 47 43 41 44 44 42 43 44 42 41 41 40 39 38 37 37 38 40 42
42 45 48 50 52 52 51 51 51 51 51 51 51 52 52 53 54 55 56 56 56 56 56 57 57 58 58 59 59 59 59 59 60 62 63 64 65 65 65 64 63 62 61 60 60 60 59 59 58 56 55 56 56 55 54 55 54 51 49 50 53 52 49 47 46 44 43 42 44 45 44 42 45 46 43 41 41 40 41 40 38 37 38 40 42
44 47 49 51 53 53 52 51 51 51 51 51 52 52 53 54 54 55 56 56 57 57 57 57 58 59 59 60 61 61 61 60 60 61 62 64 65 65 65 65 64 63 62 61 60 60 60 59 58 57 56 56 57 56 55 55 55 54 51 49 50 51 50 47 44 41 42 44 45 46 46 46 46 46 44 42 40 39 40 40 39 37 37 39 41
47 49 51 53 55 55 53 52 51 51 51 52 53 54 54 54 54 54 55 55 56 56 57 57 58 59 60 61 62 62 62 62 61 61 62 64 64 65 65 65 65 64 62 61 61 61 61 60 59 58 57 56 57 57 56 55 55 56 56 52 48 48 50 50 47 44 43 44 45 46 48 46 44 44 44 43 41 40 40 40 39 37 36 38 40
49 51 53 55 57 56 53 52 52 52 52 53 53 53 53 53 53 53 53 54 55 55 56 56 57 58 59 60 61 62 63 63 63 63 63 63 64 64 65 66 66 65 62 62 62 62 62 62 60 59 59 58 57 56 55 55 55 56 57 56 53 50 49 50 51 50 47 45 45 46 47 45 43 43 44 44 43 42 42 42 40 38 37 38 40
52 53 55 58 58 56 53 52 53 53 53 53 52 52 51 51 52 53 53 54 54 54 55 55 55 56 58 59 60 61 61 62 63 63 63 64 64 64 65 66 66 64 63 62 63 62 62 63 62 60 59 58 57 56 55 55 56 55 55 57 57 55 51 48 49 49 49 47 47 47 45 44 44 44 45 46 45 44 44 43 41 39 39 40 41
Wind_Direction
246 244 238 232 229 224 224 223 218 215 214 214 214 216 219 219 219 219 218 217 218 221 223 223 223 223 222 220 218 217 211 210 225 230 228 229 226 225 227 230 234 237 236 236 236 237 238 239 240 241 244 248 251 253 256 262 269 275 281 285 288 292 297 302 307 312 319 323 326 330 334 341 347 350 352 357 359 358 356 355 356 356 354 354 355
247 246 238 229 228 225 226 227 222 219 219 216 216 215 217 219 220 220 220 220 220 221 223 225 225 225 225 223 219 218 213 209 221 231 231 232 230 227 227 229 232 236 237 237 238 239 240 240 242 243 246 250 254 256 259 264 270 275 279 282 285 289 294 298 303 308 313 317 320 324 329 335 339 344 349 354 357 356 354 353 354 353 351 351 353
254 247 235 225 223 222 224 229 226 222 220 219 218 217 216 218 220 221 221 221 222 222 223 225 227 227 227 228 224 222 219 212 218 228 231 232 232 229 230 231 232 234 235 236 238 240 241 243 245 246 249 252 255 258 262 267 271 274 277 280 282 287 292 296 300 304 309 312 315 319 324 329 333 338 345 350 353 353 352 351 352 352 350 350 351
263 247 227 221 222 224 224 229 230 223 219 218 218 218 217 217 218 221 222 222 223 224 225 226 228 228 228 229 229 228 226 219 218 226 232 233 232 231 231 233 234 234 234 234 236 240 243 245 248 250 252 254 256 260 264 267 270 272 275 278 281 286 291 295 298 301 305 309 312 316 320 324 328 333 340 345 348 350 350 351 351 350 350 349 348
267 245 221 219 223 226 227 230 232 221 215 217 217 217 218 216 217 219 221 223 223 224 226 227 229 230 230 229 229 230 229 225 222 224 231 235 234 233 233 234 234 235 235 234 235 239 244 246 249 252 254 256 257 260 263 266 269 271 274 277 281 285 290 293 295 298 302 306 309 313 318 321 325 329 335 340 343 346 347 347 347 347 347 345 344
266 251 225 221 223 227 227 228 234 223 213 216 218 218 217 215 215 216 218 221 222 224 225 227 230 231 231 231 231 231 231 229 226 224 229 235 237 236 235 236 236 236 236 236 236 239 243 246 249 252 254 256 257 258 260 264 268 270 273 277 280 284 288 290 292 295 298 301 305 310 316 320 323 325 329 333 336 339 341 341 341 343 343 341 339
262 256 239 227 225 232 234 231 236 234 223 218 218 220 218 216 216 214 215 217 219 222 225 227 230 232 233 233 233 234 234 233 231 228 228 234 239 239 239 238 238 239 239 239 239 240 243 246 249 251 253 254 255 257 259 263 266 269 273 276 279 282 286 288 289 291 294 298 304 309 314 318 321 321 323 326 328 329 332 334 336 338 340 340 339
256 254 250 240 233 238 242 239 239 237 237 232 224 223 220 216 215 213 213 214 216 220 224 227 229 232 234 235 235 235 236 236 235 234 230 232 237 240 242 242 241 241 242 242 242 242 244 245 248 250 252 253 254 256 259 262 265 268 271 275 278 281 284 286 287 288 292 297 304 308 312 316 319 319 318 319 321 322 324 327 329 332 337 340 340
253 251 250 248 245 244 243 243 244 238 238 241 236 236 231 220 216 214 213 212 213 216 222 226 228 231 234 236 237 236 237 238 238 238 236 234 235 238 242 243 244 243 243 244 245 245 245 247 248 249 251 253 254 255 258 261 264 267 270 273 276 279 282 283 284 287 291 298 303 307 310 315 317 317 316 315 316 318 319 320 323 326 332 337 338
248 251 250 250 251 252 248 244 247 244 242 246 244 243 245 239 227 220 215 214 215 215 218 224 228 231 233 236 238 238 238 239 241 241 240 239 238 238 240 243 245 246 245 245 246 248 249 249 250 251 252 254 255 257 258 261 263 267 269 271 274 277 278 281 283 287 292 297 301 305 308 312 315 315 314 313 313 315 316 317 319 322 326 332 334
245 248 251 250 250 252 250 245 246 247 247 250 249 246 248 247 242 233 222 217 219 217 217 221 225 229 232 236 239 239 238 239 241 243 242 241 241 240 240 242 245 247 249 250 250 250 251 253 254 254 255 255 257 258 260 261 263 266 268 270 272 274 276 280 283 287 292 296 299 302 306 309 312 314 313 312 311 312 313 314 316 319 323 327 330
248 246 248 249 250 250 250 248 247 247 247 250 249 247 248 247 245 243 234 226 225 222 220 221 224 228 230 234 238 240 240 238 240 244 245 244 243 243 242 242 244 246 248 250 253 254 254 255 256 257 258 259 258 258 259 260 262 264 267 269 271 273 276 279 283 286 290 294 296 299 303 306 310 312 312 312 311 311 310 311 313 316 319 323 326
254 249 248 249 250 251 252 252 250 249 248 249 249 248 247 247 246 246 242 237 234 230 227 225 226 229 230 232 236 241 242 241 240 242 245 246 245 244 244 244 244 245 246 247 250 253 256 257 258 259 259 261 261 260 260 261 262 264 265 267 269 272 275 278 282 285 288 290 293 296 300 304 308 309 310 311 311 311 311 311 313 314 317 320 323
257 254 251 250 250 251 252 253 252 250 249 247 249 249 248 247 246 247 246 244 241 238 234 232 230 230 231 231 234 239 242 243 241 241 243 245 246 245 245 245 244 245 246 247 248 250 253 256 259 260 260 261 262 263 264 264 265 266 266 267 269 272 275 277 280 282 285 288 291 294 297 301 305 306 307 309 310 310 311 312 313 314 315 319 320
256 255 254 252 252 251 251 253 253 252 251 249 248 248 248 247 247 247 248 248 247 245 242 239 236 234 233 232 233 236 239 242 243 241 240 242 245 246 245 245 245 245 246 248 249 251 252 254 256 258 260 261 262 263 264 265 266 267 267 268 270 273 275 277 279 281 283 286 289 291 295 298 301 303 304 306 309 309 310 311 312 313 315 318 318
255 256 256 255 254 253 252 252 252 253 253 253 251 250 249 249 249 248 249 250 250 250 249 245 240 237 237 236 235 236 237 240 241 241 241 241 242 243 243 244 245 245 245 246 249 250 252 254 256 257 258 260 261 262 263 264 265 266 267 269 271 273 276 277 278 279 282 284 286 289 291 295 298 300 300 302 305 306 308 309 310 312 314 316 316
253 254 255 256 256 256 255 253 253 253 254 254 254 253 252 251 251 250 250 250 250 251 252 251 247 243 241 240 239 240 239 239 240 241 241 240 240 241 241 243 245 245 245 245 246 247 249 251 254 257 258 258 260 261 262 263 264 265 267 269 272 273 275 276 277 279 281 282 284 286 288 292 294 296 297 298 300 302 304 306 307 310 312 314 316
251 252 253 255 256 257 257 256 255 254 254 255 255 254 254 253 253 252 251 251 251 251 253 254 253 250 247 245 245 244 242 242 240 240 242 242 240 240 240 240 243 246 246 245 245 246 247 248 251 254 257 258 259 261 262 263 264 265 267 268 270 272 273 274 276 278 279 281 282 284 287 289 291 292 293 294 295 298 299 301 303 306 308 312 316
250 250 251 253 254 256 257 257 257 257 256 256 257 257 256 255 255 253 252 252 251 250 251 252 253 252 252 250 249 248 246 246 244 243 245 245 243 241 240 240 241 243 245 247 247 246 247 248 249 250 253 256 257 259 261 262 264 265 266 267 268 270 272 273 275 276 278 280 282 283 286 288 289 289 290 292 293 295 296 297 298 300 303 307 311
253 251 251 252 253 255 257 258 259 259 259 258 258 259 259 258 258 256 254 253 252 250 249 249 251 252 252 252 252 251 249 249 249 250 250 249 248 245 241 240 241 242 244 246 247 247 248 248 249 249 251 253 255 257 258 260 262 264 265 266 267 268 270 272 274 275 277 278 280 283 285 286 286 287 288 290 292 293 294 295 295 297 299 302 305
258 256 254 253 253 254 255 257 258 259 259 260 260 260 261 261 261 261 259 256 255 253 250 250 251 250 250 251 253 253 251 250 251 255 256 254 251 247 243 243 243 242 244 246 247 248 248 248 249 250 251 252 253 254 255 257 259 262 264 266 266 267 269 271 272 274 276 277 279 281 283 283 284 285 286 288 290 291 293 294 293 295 297 299 300
260 260 260 258 256 255 255 256 257 258 258 259 259 260 261 262 262 263 262 260 259 257 254 253 253 251 250 251 251 251 252 251 251 254 257 254 251 246 245 247 246 244 244 245 247 249 249 249 249 250 252 252 252 253 254 256 257 259 262 265 266 267 268 269 271 272 274 275 277 279 280 281 282 283 285 287 289 289 291 292 292 292 294 296 297
258 259 260 261 260 258 257 257 257 258 259 259 259 259 260 261 262 262 262 262 261 261 259 257 256 254 252 251 251 250 250 251 251 253 254 253 253 251 247 246 247 247 248 248 249 250 250 250 249 249 251 252 252 253 254 256 257 258 259 261 264 266 267 269 270 271 272 274 275 277 278 279 280 282 283 284 286 288 289 290 290 290 292 294 294
254 256 258 259 260 260 259 259 258 258 259 260 259 259 259 260 261 261 261 262 261 261 261 259 258 257 255 254 253 252 251 251 251 253 254 252 252 252 250 248 247 247 249 251 252 252 252 251 251 250 251 251 251 252 253 255 256 258 258 258 261 263 265 267 269 270 271 272 274 275 276 277 279 280 281 282 283 285 287 287 287 288 290 291 291
251 253 255 257 259 260 260 260 260 259 259 259 259 259 259 259 260 260 261 261 261 261 261 260 260 259 258 257 256 255 254 253 253 253 254 253 251 251 251 252 251 249 249 250 251 253 253 253 252 251 251 252 252 252 253 253 254 256 257 257 258 261 262 264 267 269 270 271 272 274 275 276 277 279 279 280 281 283 284 285 286 287 289 289 289
248 249 251 253 256 257 259 260 260 261 260 260 260 260 260 259 260 260 260 260 260 260 260 261 261 260 260 259 258 257 256 255 254 253 253 253 253 252 252 252 252 251 251 252 252 253 253 253 253 253 253 253 253 254 254 253 252 253 255 256 257 259 261 263 265 267 268 270 271 272 274 275 276 277 278 279 280 281 282 283 284 286 286 286 286
248 249 251 252 254 256 257 258 259 260 261 261 261 261 261 260 259 259 260 260 259 259 259 260 260 260 260 260 259 259 258 256 255 254 254 253 253 252 252 252 253 253 253 254 255 255 256 256 256 256 256 254 253 253 254 253 253 254 254 255 256 258 260 262 263 264 266 267 270 271 272 274 275 276 276 277 279 279 280 282 283 283 284 283 284
253 253 254 255 256 257 258 259 260 260 260 261 261 260 261 261 261 260 259 259 259 259 258 258 258 259 259 259 259 259 259 258 257 255 254 254 253 253 253 252 253 253 254 254 256 258 259 259 260 260 260 259 253 250 250 252 253 255 255 256 257 257 258 260 260 261 263 265 267 269 271 273 274 274 275 276 277 277 278 279 280 280 281 281 282
262 261 261 261 261 261 261 262 262 262 262 262 262 261 261 261 261 261 261 260 260 259 258 258 258 257 257 258 258 258 258 259 258 257 256 255 254 254 254 253 253 254 254 255 256 258 259 260 261 262 263 264 259 251 248 250 252 255 256 257 257 257 257 258 259 259 261 262 264 267 270 272 273 274 274 275 275 275 275 276 277 277 278 279 280
268 267 267 267 266 265 265 265 265 265 265 265 265 264 263 262 260 260 260 260 260 260 259 258 257 257 257 257 257 257 257 257 257 257 257 256 255 255 255 254 255 255 255 255 256 256 258 259 260 262 262 264 264 258 252 252 253 255 257 257 257 256 255 256 258 259 260 261 263 264 267 270 271 272 273 274 274 274 274 274 274 275 276 276 277
270 270 269 269 269 268 268 268 267 267 268 268 268 268 268 266 264 261 259 259 259 259 259 259 258 257 257 257 257 256 256 256 256 256 256 256 256 255 255 255 255 256 256 256 255 255 257 258 259 260 260 261 263 261 257 255 255 256 259 260 258 256 255 255 256 257 258 259 261 262 264 266 268 269 271 272 272 272 273 273 273 273 273 273 274
272 272 271 270 270 270 270 270 269 269 269 269 269 270 270 270 269 266 263 260 258 257 257 258 258 257 257 257 257 257 256 256 256 256 255 255 256 256 256 255 255 255 256 256 256 255 255 257 257 258 259 259 260 260 257 256 255 256 259 261 259 257 256 254 254 255 257 258 259 261 262 263 264 266 268 269 270 271 271 271 271 271 270 270 271
275 274 274 273 271 271 271 270 270 270 270 270 270 270 271 270 270 269 267 264 261 257 255 256 257 257 257 257 257 257 257 256 255 256 256 255 255 255 256 256 255 255 256 256 257 256 254 255 256 257 258 258 258 257 256 255 255 255 256 258 259 259 258 257 255 253 254 256 257 258 260 261 262 263 265 266 268 269 270 270 270 268 268 268 269
278 277 276 275 274 273 273 272 271 271 271 271 270 270 270 270 269 269 268 267 265 260 256 255 254 255 256 256 256 256 257 257 256 255 256 255 255 255 255 256 256 256 256 256 257 257 255 253 255 256 256 257 257 256 255 254 254 254 254 255 257 259 261 262 260 256 253 252 253 255 258 259 260 262 263 264 266 267 267 267 267 267 266 267 268
279 278 277 276 275 275 274 274 273 272 271 271 270 270 270 269 268 267 267 266 266 264 260 256 254 253 255 255 255 255 255 256 257 256 256 256 255 254 254 254 255 255 256 256 255 256 255 253 253 255 255 255 256 256 255 254 252 252 254 253 253 256 260 262 265 264 257 252 250 252 255 257 258 260 261 262 263 264 264 264 265 265 265 266 269
280 279 278 277 276 275 275 274 274 273 273 272 271 270 269 269 268 267 266 265 265 264 262 260 256 254 253 253 255 255 254 254 255 256 257 256 256 255 254 253 254 254 255 255 255 255 255 253 252 254 255 255 255 255 254 254 253 252 253 251 249 252 257 257 261 267 265 257 251 250 252 254 256 258 259 261 261 261 261 262 262 263 264 266 269
280 279 279 278 278 277 276 276 275 274 274 273 273 272 270 269 268 267 266 265 264 263 262 261 258 256 253 252 252 254 255 254 254 255 256 256 256 256 254 253 253 253 253 254 254 254 255 254 252 253 254 255 255 255 254 254 254 253 252 251 249 250 252 252 255 261 264 262 257 252 251 252 254 255 257 259 260 260 261 261 262 262 264 266 268
279 279 279 279 279 279 278 278 277 275 275 274 273 273 273 271 270 268 267 265 264 263 262 261 259 257 255 253 252 252 253 254 255 254 254 254 255 256 255 254 253 252 252 252 253 253 253 253 253 253 254 254 255 255 254 253 254 253 251 249 249 250 248 247 252 255 257 260 262 258 254 252 253 255 256 257 259 260 261 261 262 263 263 265 267
280 280 281 281 282 281 281 279 278 276 275 274 273 272 272 272 271 270 268 266 264 263 262 261 260 259 256 254 252 252 252 252 254 255 254 253 253 254 255 255 254 253 252 251 251 252 251 252 252 253 253 253 254 255 255 253 252 253 252 249 249 251 248 246 249 251 251 255 259 261 260 256 255 256 257 258 258 259 260 261 263 263 264 265 267
282 282 284 285 285 284 282 280 278 277 275 274 273 271 270 270 270 269 269 267 266 264 262 261 260 259 258 256 253 252 252 251 252 253 254 254 253 253 253 254 255 254 253 252 251 251 250 250 250 251 252 251 250 251 253 253 253 254 254 251 250 251 249 246 246 248 250 252 255 259 264 266 265 263 262 262 262 261 261 262 263 264 265 267 268
282 284 286 288 288 286 284 281 279 278 276 275 274 272 271 270 269 268 268 267 266 265 264 262 261 259 258 257 255 253 252 252 251 252 252 253 253 252 252 253 253 253 253 252 251 250 250 249 249 249 249 249 247 248 251 253 254 255 254 251 246 245 246 245 245 247 250 252 256 261 265 267 271 270 268 268 268 267 264 264 264 265 268 269 269
281 283 287 290 290 288 286 284 282 280 279 277 276 275 273 272 271 269 268 268 267 266 265 263 262 261 259 258 257 255 253 252 251 252 252 252 252 252 252 252 252 252 252 251 250 250 249 249 248 248 248 248 248 250 252 253 253 252 252 252 247 243 243 245 246 247 250 255 260 264 263 263 267 270 271 270 271 273 272 268 267 268 270 270 270
281 283 289 293 293 290 287 285 283 281 279 278 277 276 275 273 272 271 270 269 268 267 266 265 263 262 260 259 258 256 255 253 251 251 251 252 251 251 250 251 251 251 251 250 250 250 249 248 247 247 247 248 248 249 250 251 252 252 252 253 251 245 243 245 247 249 252 257 261 262 260 261 263 267 271 271 270 276 279 275 271 270 269 270 271
281 286 293 297 296 294 289 285 283 281 279 277 276 275 275 274 272 271 270 269 268 267 266 265 264 263 261 260 258 257 256 255 253 251 251 251 251 251 250 249 249 250 250 250 249 249 249 249 247 246 247 248 248 248 247 248 250 252 252 252 251 247 244 245 247 249 252 255 258 261 261 260 261 265 270 271 271 275 280 278 273 271 270 270 271
282 290 296 298 297 295 291 287 284 282 279 277 276 275 274 273 272 271 270 269 268 266 265 264 264 263 262 260 258 257 256 256 254 253 251 250 250 250 250 250 249 248 249 249 249 249 249 249 248 246 246 247 248 248 249 249 249 250 249 250 251 250 249 247 246 247 248 249 254 259 259 258 260 263 267 270 271 274 278 279 276 273 272 271 270
286 293 296 297 297 296 292 288 284 282 280 278 277 276 275 274 273 272 270 269 268 267 265 264 263 262 261 260 258 257 255 255 255 254 252 251 250 249 249 249 249 248 247 248 248 248 248 248 248 247 246 247 247 247 247 249 249 249 249 249 250 251 250 248 245 243 243 241 242 249 252 255 259 262 265 269 270 271 274 275 276 275 275 273 270
288 292 294 296 297 296 292 288 285 282 281 280 279 278 277 276 274 273 271 270 269 268 267 265 264 262 261 260 258 257 255 254 253 254 253 252 250 249 248 248 248 248 247 247 247 247 248 248 248 247 245 245 246 245 245 245 246 247 247 248 248 247 245 243 241 239 238 235 236 242 248 252 257 261 264 267 269 270 270 271 273 276 277 275 272
289 291 293 295 297 295 291 287 285 283 282 282 281 280 279 277 276 274 273 271 270 269 267 266 265 263 262 260 259 257 256 254 252 252 252 252 251 250 248 247 247 247 247 247 247 246 246 246 247 247 245 244 244 244 243 243 243 243 244 246 246 244 241 239 237 236 237 237 237 240 243 247 253 259 263 265 266 268 269 270 272 277 279 277 274
288 290 292 295 296 294 289 286 284 283 283 283 282 281 280 278 277 275 273 272 270 269 268 267 265 264 263 261 260 258 256 255 253 251 251 251 251 250 249 248 246 245 245 246 246 246 245 244 244 245 245 244 244 244 243 243 243 242 241 242 243 243 240 238 238 238 239 239 240 241 242 245 250 257 261 263 264 266 269 271 273 277 280 279 277
288 290 292 295 296 293 289 286 285 285 285 285 284 282 281 279 278 277 275 273 272 271 270 268 267 265 264 263 261 259 257 255 254 252 250 250 250 249 249 248 246 245 243 244 245 245 244 243 242 242 242 243 243 243 243 243 243 242 241 241 242 243 242 240 240 240 240 240 241 243 244 245 248 254 258 261 262 264 267 270 273 276 279 281 280
288 290 292 295 295 292 288 287 288 288 287 286 284 283 282 281 280 279 278 276 275 273 272 270 269 267 265 264 263 261 259 257 255 252 250 249 248 248 248 247 246 245 243 242 243 243 243 243 242 241 241 241 241 241 241 242 242 243 243 243 243 243 244 244 242 241 241 240 241 245 248 248 249 252 256 259 260 262 265 269 273 276 279 282 284
Height
5821 5821 5822 5824 5824 5825 5826 5828 5831 5832 5834 5834 5836 5838 5839 5840 5841 5843 5844 5846 5847 5848 5850 5852 5853 5854 5856 5857 5858 5859 5861 5863 5862 5863 5864 5865 5867 5868 5870 5871 5872 5873 5874 5875 5876 5877 5878 5879 5880 5881 5882 5882 5882 5883 5883 5883 5883 5883 5883 5883 5883 5883 5883 5883 5882 5882 5881 5881 5880 5880 5879 5878 5878 5878 5877 5876 5875 5874 5873 5872 5871 5870 5868 5867 5865
5819 5819 5821 5822 5823 5823 5824 5826 5829 5830 5832 5832 5833 5835 5837 5839 5840 5841 5842 5844 5845 5846 5848 5850 5851 5853 5854 5855 5857 5858 5859 5861 5861 5862 5863 5864 5865 5867 5868 5869 5870 5871 5873 5873 5874 5875 5876 5877 5878 5879 5880 5880 5881 5881 5881 5882 5882 5882 5882 5882 5882 5882 5882 5882 5882 5881 5881 5880 5880 5879 5878 5878 5877 5877 5877 5876 5875 5874 5873 5872 5871 5870 5868 5867 5865
5817 5817 5818 5820 5820 5821 5823 5825 5827 5827 5829 5830 5831 5833 5834 5836 5838 5839 5840 5842 5843 5845 5846 5847 5849 5851 5852 5854 5855 5856 5857 5859 5860 5860 5862 5863 5864 5865 5866 5867 5869 5870 5871 5872 5873 5874 5875 5876 5877 5877 5878 5879 5879 5880 5880 5880 5881 5881 5881 5881 5881 5881 5881 5881 5881 5880 5880 5880 5879 5879 5878 5877 5877 5877 5876 5875 5875 5874 5873 5872 5871 5870 5868 5867 5865
5815 5814 5815 5817 5818 5819 5821 5822 5823 5824 5826 5827 5829 5830 5832 5834 5836 5837 5839 5840 5841 5843 5844 5845 5847 5849 5850 5852 5854 5855 5856 5858 5859 5859 5860 5861 5862 5864 5865 5866 5867 5868 5869 5870 5871 5872 5873 5874 5875 5876 5876 5877 5878 5878 5878 5879 5879 5879 5880 5880 5880 5880 5880 5880 5879 5879 5879 5879 5878 5877 5877 5877 5876 5876 5876 5875 5874 5873 5872 5871 5871 5869 5868 5866 5865
5813 5813 5814 5814 5815 5816 5818 5819 5820 5820 5822 5824 5826 5827 5829 5831 5833 5835 5836 5838 5839 5840 5842 5843 5844 5846 5848 5849 5851 5852 5854 5856 5857 5858 5859 5859 5861 5862 5863 5864 5866 5867 5867 5869 5870 5871 5872 5872 5873 5874 5874 5875 5876 5877 5877 5877 5877 5878 5878 5878 5878 5878 5879 5878 5878 5878 5878 5877 5877 5876 5876 5876 5876 5875 5875 5874 5874 5873 5872 5871 5870 5869 5868 5866 5864
5812 5812 5813 5813 5813 5814 5816 5817 5818 5818 5820 5821 5822 5824 5825 5828 5830 5832 5833 5835 5836 5838 5839 5840 5842 5843 5845 5847 5848 5849 5851 5853 5855 5856 5857 5858 5859 5861 5862 5863 5864 5865 5866 5867 5868 5869 5870 5870 5871 5871 5872 5873 5874 5874 5875 5875 5875 5876 5876 5876 5876 5877 5877 5877 5876 5876 5876 5876 5875 5875 5875 5875 5874 5874 5874 5874 5873 5872 5871 5870 5869 5868 5867 5866 5864
5810 5810 5812 5812 5812 5812 5814 5816 5816 5817 5818 5819 5820 5822 5823 5824 5827 5829 5830 5832 5833 5835 5836 5838 5839 5841 5842 5844 5846 5847 5849 5850 5852 5854 5856 5857 5858 5859 5860 5862 5863 5864 5864 5865 5866 5867 5867 5868 5869 5869 5870 5871 5871 5872 5873 5873 5873 5874 5874 5874 5875 5875 5875 5875 5875 5874 5874 5874 5874 5873 5873 5873 5873 5873 5873 5872 5872 5871 5870 5869 5869 5868 5866 5865 5863
5809 5809 5809 5810 5810 5811 5813 5814 5814 5815 5816 5817 5818 5818 5820 5822 5823 5825 5827 5829 5831 5832 5834 5835 5837 5838 5840 5841 5843 5845 5847 5848 5849 5851 5853 5854 5856 5857 5858 5860 5861 5862 5863 5863 5864 5864 5865 5866 5866 5867 5867 5868 5869 5870 5870 5871 5871 5872 5872 5873 5873 5873 5873 5873 5873 5873 5872 5872 5872 5872 5871 5871 5871 5871 5871 5871 5871 5870 5869 5869 5868 5867 5866 5864 5863
5807 5807 5807 5807 5807 5808 5810 5811 5811 5812 5813 5814 5815 5815 5817 5820 5821 5823 5825 5827 5828 5830 5831 5833 5834 5836 5837 5838 5840 5842 5844 5846 5847 5848 5850 5852 5853 5854 5856 5857 5858 5860 5860 5861 5861 5862 5863 5863 5864 5865 5865 5865 5866 5867 5868 5869 5869 5870 5870 5871 5871 5871 5872 5871 5871 5871 5871 5871 5871 5870 5870 5870 5870 5870 5869 5869 5869 5869 5868 5867 5867 5866 5865 5863 5862
5805 5804 5804 5805 5805 5806 5808 5809 5809 5810 5811 5812 5813 5813 5815 5817 5819 5821 5822 5824 5825 5827 5828 5830 5831 5833 5835 5836 5837 5839 5842 5843 5844 5845 5847 5849 5850 5852 5853 5854 5855 5856 5857 5858 5859 5860 5860 5861 5862 5862 5863 5863 5864 5865 5866 5867 5867 5868 5868 5869 5869 5869 5869 5870 5869 5869 5870 5869 5869 5868 5868 5868 5868 5868 5868 5868 5868 5867 5867 5866 5865 5864 5863 5862 5861
5803 5803 5802 5802 5803 5804 5806 5807 5807 5808 5809 5809 5811 5812 5813 5814 5817 5819 5820 5821 5823 5824 5826 5827 5828 5830 5832 5833 5834 5836 5838 5840 5841 5842 5844 5846 5847 5849 5850 5852 5853 5853 5855 5856 5857 5858 5858 5859 5860 5860 5861 5862 5862 5863 5864 5864 5865 5865 5866 5866 5867 5867 5867 5868 5868 5868 5868 5868 5867 5867 5866 5867 5867 5866 5866 5866 5866 5866 5865 5864 5864 5863 5862 5861 5859
5799 5800 5800 5800 5800 5801 5803 5805 5806 5807 5807 5808 5810 5812 5812 5813 5814 5816 5818 5819 5820 5822 5824 5825 5825 5826 5828 5831 5832 5833 5835 5837 5838 5839 5840 5842 5844 5845 5847 5848 5849 5851 5852 5853 5853 5855 5856 5857 5858 5858 5859 5859 5860 5860 5861 5862 5862 5863 5864 5864 5864 5864 5865 5866 5866 5866 5866 5866 5865 5865 5865 5865 5865 5865 5864 5864 5864 5864 5863 5863 5862 5861 5860 5859 5858
5794 5796 5797 5798 5798 5798 5799 5801 5803 5804 5805 5806 5807 5809 5810 5811 5812 5813 5815 5817 5818 5819 5821 5822 5823 5824 5825 5828 5829 5830 5831 5833 5835 5836 5837 5838 5840 5842 5843 5844 5846 5847 5848 5850 5851 5851 5852 5853 5854 5856 5857 5857 5857 5858 5858 5859 5859 5860 5861 5861 5862 5862 5863 5863 5864 5864 5864 5864 5863 5863 5863 5863 5863 5863 5862 5862 5862 5862 5861 5861 5860 5859 5858 5857 5856
5790 5792 5794 5795 5796 5796 5797 5798 5799 5800 5801 5802 5803 5805 5807 5808 5809 5810 5812 5813 5815 5816 5818 5819 5820 5821 5822 5825 5827 5828 5828 5829 5832 5833 5833 5834 5836 5838 5840 5841 5842 5843 5845 5847 5848 5849 5849 5850 5851 5852 5854 5855 5855 5856 5856 5857 5857 5857 5858 5859 5859 5859 5860 5861 5861 5861 5861 5861 5861 5861 5861 5861 5861 5860 5860 5860 5860 5859 5859 5859 5858 5857 5856 5855 5854
5786 5788 5789 5791 5792 5793 5794 5794 5795 5796 5797 5798 5799 5800 5802 5804 5805 5807 5808 5809 5811 5812 5814 5815 5816 5817 5819 5822 5824 5824 5825 5827 5828 5828 5829 5831 5832 5834 5836 5837 5839 5840 5841 5843 5845 5846 5847 5847 5848 5849 5850 5852 5852 5853 5854 5854 5854 5855 5855 5856 5857 5857 5858 5858 5858 5858 5858 5859 5859 5858 5858 5858 5858 5858 5858 5858 5858 5857 5857 5856 5856 5855 5854 5853 5852
5783 5784 5785 5787 5788 5789 5790 5791 5792 5792 5793 5794 5795 5796 5798 5799 5801 5803 5804 5805 5807 5807 5809 5810 5812 5813 5815 5818 5820 5821 5823 5824 5823 5824 5825 5827 5829 5830 5831 5832 5834 5836 5838 5840 5841 5842 5843 5844 5844 5845 5847 5848 5849 5850 5851 5851 5851 5851 5852 5853 5854 5854 5855 5855 5855 5856 5855 5855 5856 5855 5855 5855 5855 5855 5855 5855 5855 5855 5855 5854 5853 5853 5852 5851 5849
5780 5781 5781 5782 5784 5785 5786 5787 5788 5789 5790 5790 5791 5793 5794 5795 5796 5798 5799 5801 5802 5803 5804 5806 5808 5809 5810 5813 5815 5818 5820 5819 5819 5821 5821 5823 5825 5826 5827 5828 5830 5831 5833 5835 5837 5838 5839 5840 5841 5841 5843 5845 5845 5846 5847 5847 5847 5848 5849 5850 5850 5851 5852 5852 5852 5853 5853 5852 5853 5852 5852 5852 5853 5853 5852 5853 5853 5853 5852 5852 5851 5850 5849 5848 5847
5777 5778 5778 5779 5780 5781 5782 5783 5784 5785 5786 5787 5788 5789 5790 5790 5792 5794 5795 5797 5798 5799 5801 5802 5803 5803 5806 5809 5811 5813 5815 5814 5815 5817 5817 5819 5821 5822 5824 5825 5826 5827 5829 5831 5832 5834 5835 5836 5838 5838 5839 5841 5842 5842 5843 5843 5844 5845 5846 5847 5847 5847 5848 5848 5848 5849 5850 5849 5849 5849 5849 5850 5850 5850 5849 5850 5850 5850 5850 5849 5849 5848 5847 5846 5845
5774 5775 5776 5776 5777 5778 5778 5779 5780 5781 5782 5783 5784 5785 5785 5786 5788 5789 5791 5793 5794 5795 5797 5798 5797 5799 5802 5804 5805 5807 5808 5808 5811 5813 5813 5815 5817 5818 5821 5822 5822 5823 5825 5826 5828 5829 5831 5832 5834 5835 5835 5836 5838 5839 5839 5839 5839 5840 5842 5843 5843 5844 5844 5845 5845 5846 5846 5846 5845 5846 5846 5846 5846 5846 5846 5846 5847 5847 5847 5846 5846 5845 5844 5844 5843
5771 5772 5773 5773 5774 5775 5775 5776 5777 5778 5779 5780 5780 5781 5782 5782 5784 5785 5787 5788 5789 5790 5792 5792 5792 5795 5797 5798 5799 5801 5801 5802 5805 5808 5809 5811 5812 5814 5816 5817 5818 5820 5821 5822 5823 5824 5826 5828 5830 5831 5831 5832 5834 5835 5835 5835 5835 5836 5837 5838 5839 5840 5840 5841 5841 5841 5843 5843 5842 5842 5843 5843 5843 5843 5843 5843 5843 5844 5843 5843 5843 5842 5842 5841 5840
5767 5768 5769 5770 5771 5772 5772 5773 5773 5774 5775 5776 5777 5778 5778 5779 5780 5781 5783 5783 5784 5785 5787 5787 5788 5790 5792 5792 5794 5796 5796 5798 5800 5802 5803 5806 5808 5809 5810 5811 5813 5816 5817 5817 5818 5819 5821 5823 5825 5826 5827 5828 5830 5831 5831 5832 5832 5833 5833 5833 5834 5835 5836 5836 5837 5837 5838 5839 5838 5839 5839 5839 5839 5839 5839 5840 5840 5840 5840 5840 5839 5839 5838 5838 5837
5763 5764 5765 5766 5767 5768 5769 5769 5770 5770 5771 5772 5773 5774 5775 5775 5776 5777 5778 5779 5779 5780 5782 5783 5783 5785 5787 5788 5789 5790 5792 5793 5795 5796 5797 5799 5801 5804 5805 5805 5808 5810 5811 5812 5813 5813 5815 5818 5820 5821 5822 5824 5825 5826 5827 5828 5829 5830 5830 5829 5829 5830 5831 5831 5832 5833 5834 5835 5835 5835 5835 5835 5835 5836 5836 5836 5836 5836 5836 5836 5836 5835 5835 5834 5834
5760 5760 5761 5762 5763 5764 5765 5766 5766 5767 5767 5768 5769 5770 5771 5771 5772 5773 5773 5774 5775 5776 5777 5778 5779 5780 5782 5783 5784 5785 5787 5788 5789 5791 5791 5793 5795 5798 5800 5800 5802 5805 5806 5806 5807 5808 5809 5812 5814 5816 5817 5819 5820 5821 5822 5823 5825 5827 5827 5826 5825 5825 5826 5826 5827 5828 5829 5830 5831 5831 5831 5831 5831 5832 5832 5832 5832 5833 5833 5833 5832 5831 5831 5831 5830
5757 5757 5758 5758 5759 5760 5761 5761 5762 5763 5763 5764 5765 5765 5766 5767 5768 5768 5769 5770 5771 5771 5772 5774 5774 5775 5776 5777 5778 5780 5781 5783 5785 5785 5786 5788 5789 5791 5794 5794 5796 5799 5800 5800 5801 5802 5804 5805 5808 5811 5811 5813 5816 5817 5817 5819 5821 5822 5822 5822 5822 5821 5821 5821 5822 5823 5825 5826 5826 5826 5827 5827 5827 5828 5828 5828 5828 5829 5829 5829 5828 5828 5828 5827 5827
5754 5754 5755 5755 5755 5756 5757 5757 5758 5759 5759 5760 5761 5761 5762 5763 5763 5764 5764 5765 5766 5767 5767 5768 5769 5770 5771 5772 5773 5774 5775 5777 5779 5780 5781 5782 5782 5784 5788 5788 5789 5792 5794 5794 5795 5796 5798 5800 5802 5804 5805 5807 5810 5811 5813 5814 5816 5817 5817 5817 5817 5817 5817 5817 5818 5818 5820 5821 5821 5821 5822 5822 5823 5824 5824 5824 5824 5825 5825 5825 5824 5824 5824 5824 5823
5751 5751 5752 5752 5752 5752 5753 5753 5754 5754 5755 5756 5756 5757 5758 5758 5759 5759 5759 5760 5761 5762 5762 5763 5764 5764 5765 5766 5767 5768 5770 5771 5772 5774 5775 5776 5776 5779 5782 5782 5782 5784 5786 5788 5788 5790 5793 5795 5796 5797 5799 5801 5803 5805 5807 5809 5811 5811 5811 5812 5813 5812 5813 5813 5814 5814 5815 5815 5816 5817 5817 5818 5818 5819 5819 5820 5820 5821 5821 5821 5821 5821 5821 5820 5819
5747 5748 5748 5748 5748 5748 5749 5749 5750 5750 5751 5751 5752 5752 5753 5754 5754 5754 5754 5755 5755 5756 5757 5757 5758 5759 5759 5760 5761 5762 5763 5765 5766 5767 5769 5770 5771 5773 5776 5776 5776 5778 5780 5781 5781 5783 5787 5789 5790 5791 5793 5795 5797 5799 5801 5804 5806 5805 5805 5806 5808 5808 5809 5809 5809 5810 5810 5810 5811 5812 5812 5813 5814 5814 5815 5815 5816 5816 5816 5817 5817 5817 5817 5816 5816
5743 5743 5744 5744 5744 5744 5744 5745 5745 5745 5746 5746 5747 5748 5748 5748 5749 5749 5749 5749 5750 5751 5751 5752 5752 5753 5754 5755 5756 5757 5757 5758 5760 5761 5763 5764 5765 5767 5769 5770 5771 5772 5774 5774 5775 5778 5781 5782 5783 5784 5786 5788 5791 5793 5795 5799 5800 5799 5799 5801 5802 5804 5804 5804 5804 5805 5805 5806 5807 5808 5808 5809 5809 5810 5810 5811 5811 5812 5812 5812 5813 5813 5812 5812 5812
5738 5738 5738 5739 5739 5739 5739 5739 5740 5740 5741 5741 5742 5742 5743 5743 5743 5743 5743 5744 5745 5745 5745 5745 5746 5747 5748 5748 5750 5751 5751 5752 5753 5755 5756 5757 5759 5760 5762 5764 5764 5765 5767 5768 5770 5773 5775 5775 5776 5778 5779 5780 5783 5786 5789 5793 5794 5793 5794 5795 5796 5798 5798 5798 5798 5799 5800 5801 5802 5803 5804 5805 5805 5806 5806 5807 5807 5807 5807 5808 5808 5808 5808 5808 5807
5732 5733 5733 5733 5734 5734 5734 5734 5734 5734 5735 5735 5736 5736 5737 5737 5738 5738 5738 5738 5739 5739 5739 5739 5740 5740 5742 5742 5743 5745 5745 5746 5747 5748 5749 5750 5752 5753 5754 5756 5757 5757 5759 5761 5764 5767 5768 5769 5770 5772 5773 5772 5775 5780 5783 5786 5788 5788 5789 5790 5790 5791 5791 5791 5792 5793 5794 5796 5797 5799 5799 5800 5801 5801 5802 5802 5803 5802 5802 5803 5803 5804 5804 5804 5803
5727 5727 5728 5728 5728 5728 5728 5728 5728 5728 5729 5729 5729 5730 5730 5730 5731 5731 5732 5733 5733 5733 5732 5733 5734 5734 5735 5736 5736 5738 5739 5740 5741 5742 5743 5744 5745 5746 5748 5749 5750 5751 5752 5753 5756 5761 5763 5763 5763 5765 5765 5765 5768 5773 5776 5778 5780 5782 5783 5785 5784 5784 5784 5785 5786 5787 5788 5790 5792 5793 5795 5795 5796 5797 5797 5798 5798 5798 5798 5798 5799 5800 5800 5800 5799
5721 5721 5722 5722 5722 5722 5722 5722 5722 5722 5722 5723 5723 5723 5724 5723 5723 5724 5725 5726 5727 5727 5726 5727 5727 5728 5729 5729 5730 5731 5731 5733 5734 5735 5736 5737 5738 5739 5741 5742 5743 5744 5745 5745 5748 5754 5758 5756 5756 5757 5758 5759 5762 5767 5769 5771 5773 5776 5778 5778 5778 5778 5779 5780 5780 5781 5782 5784 5786 5788 5789 5790 5791 5791 5792 5793 5793 5793 5793 5793 5794 5795 5795 5795 5795
5715 5715 5715 5716 5716 5716 5716 5716 5716 5716 5716 5716 5716 5717 5717 5717 5717 5717 5717 5719 5720 5721 5721 5721 5720 5721 5722 5723 5723 5723 5724 5726 5727 5728 5729 5730 5731 5732 5733 5735 5736 5737 5738 5739 5740 5746 5751 5750 5748 5750 5751 5752 5755 5760 5762 5765 5767 5770 5772 5772 5771 5772 5774 5775 5775 5776 5777 5778 5780 5782 5783 5784 5785 5786 5787 5788 5788 5789 5788 5789 5789 5790 5791 5791 5791
5709 5709 5709 5709 5709 5709 5709 5709 5709 5709 5709 5709 5709 5709 5710 5710 5710 5710 5710 5711 5712 5713 5714 5715 5714 5714 5715 5716 5717 5717 5716 5718 5720 5721 5722 5723 5724 5725 5727 5727 5729 5730 5731 5732 5733 5736 5742 5744 5741 5742 5743 5744 5748 5751 5755 5758 5761 5763 5765 5765 5766 5768 5770 5770 5770 5770 5771 5772 5775 5776 5777 5778 5780 5781 5782 5783 5783 5784 5784 5784 5784 5785 5786 5786 5786
5703 5703 5703 5703 5703 5703 5702 5702 5702 5702 5702 5702 5702 5702 5702 5702 5703 5703 5703 5703 5704 5705 5706 5707 5708 5708 5709 5709 5710 5710 5710 5711 5712 5713 5714 5716 5717 5718 5720 5720 5722 5723 5724 5725 5726 5729 5734 5736 5735 5734 5736 5738 5740 5743 5746 5750 5753 5756 5759 5759 5760 5763 5765 5766 5765 5765 5765 5766 5768 5770 5772 5773 5774 5775 5776 5777 5778 5778 5779 5779 5780 5780 5781 5781 5780
5696 5696 5696 5696 5696 5696 5696 5695 5695 5694 5694 5694 5694 5694 5694 5694 5695 5695 5696 5696 5697 5697 5698 5699 5700 5701 5702 5702 5702 5703 5704 5704 5705 5705 5706 5708 5709 5710 5712 5713 5714 5716 5717 5717 5719 5721 5725 5729 5729 5728 5729 5731 5733 5735 5738 5741 5744 5749 5752 5753 5755 5757 5759 5760 5761 5760 5761 5761 5762 5764 5766 5767 5768 5769 5770 5771 5772 5773 5773 5774 5775 5775 5776 5775 5775
5690 5690 5690 5689 5689 5689 5689 5688 5688 5687 5686 5686 5686 5686 5686 5686 5686 5687 5688 5689 5689 5689 5690 5691 5692 5693 5694 5695 5695 5695 5696 5697 5698 5699 5699 5700 5701 5702 5704 5706 5707 5709 5710 5710 5712 5714 5716 5720 5722 5722 5722 5724 5726 5727 5730 5734 5737 5741 5745 5747 5749 5751 5752 5754 5756 5756 5756 5756 5757 5758 5760 5761 5762 5763 5764 5765 5766 5767 5768 5769 5769 5770 5770 5770 5769
5684 5684 5684 5683 5683 5683 5682 5681 5681 5680 5680 5679 5679 5678 5678 5677 5678 5679 5680 5681 5681 5682 5682 5683 5683 5685 5686 5687 5688 5688 5689 5690 5690 5691 5692 5693 5693 5694 5696 5698 5699 5701 5702 5703 5704 5706 5709 5712 5714 5715 5716 5719 5721 5721 5723 5727 5730 5732 5737 5740 5742 5744 5746 5748 5750 5751 5751 5751 5752 5753 5754 5756 5757 5758 5759 5760 5760 5761 5762 5763 5764 5764 5764 5764 5763
5679 5678 5678 5678 5677 5676 5676 5675 5674 5673 5672 5672 5672 5671 5670 5670 5670 5670 5671 5672 5673 5674 5674 5675 5675 5676 5678 5679 5680 5680 5681 5682 5682 5683 5684 5685 5686 5687 5688 5689 5690 5692 5694 5696 5697 5699 5701 5704 5706 5708 5710 5714 5716 5715 5716 5719 5722 5724 5729 5734 5736 5738 5741 5743 5745 5745 5745 5746 5747 5748 5749 5750 5751 5752 5753 5754 5755 5756 5757 5757 5758 5758 5758 5758 5758
5673 5673 5672 5672 5671 5670 5668 5667 5666 5665 5665 5664 5664 5663 5663 5662 5662 5662 5662 5663 5664 5665 5666 5667 5667 5668 5669 5670 5671 5672 5673 5674 5675 5675 5676 5677 5678 5680 5681 5681 5682 5684 5686 5688 5690 5691 5693 5696 5698 5701 5704 5708 5710 5709 5709 5710 5714 5719 5723 5728 5732 5734 5736 5737 5738 5738 5739 5740 5742 5743 5745 5745 5746 5747 5748 5748 5749 5750 5751 5751 5751 5751 5752 5753 5752
5668 5667 5667 5666 5664 5663 5661 5660 5659 5658 5657 5656 5655 5655 5654 5654 5654 5654 5654 5654 5655 5656 5657 5658 5659 5659 5660 5661 5662 5664 5665 5665 5666 5667 5668 5669 5669 5672 5673 5673 5674 5676 5678 5680 5682 5683 5685 5688 5691 5694 5696 5699 5701 5702 5702 5704 5708 5713 5717 5720 5724 5727 5729 5729 5730 5731 5732 5734 5736 5738 5740 5741 5741 5742 5743 5744 5744 5744 5744 5745 5745 5745 5747 5747 5746
5663 5662 5662 5660 5658 5656 5655 5653 5652 5650 5649 5648 5647 5647 5646 5646 5646 5645 5645 5646 5646 5647 5648 5649 5650 5651 5651 5652 5653 5654 5656 5657 5658 5658 5659 5660 5661 5663 5665 5665 5666 5668 5670 5672 5674 5675 5677 5680 5683 5686 5687 5689 5692 5694 5696 5699 5701 5705 5708 5711 5716 5720 5721 5721 5723 5725 5727 5728 5731 5733 5734 5735 5736 5737 5738 5739 5739 5738 5738 5739 5739 5740 5741 5741 5741
5657 5657 5656 5654 5652 5650 5648 5647 5645 5643 5642 5641 5639 5639 5638 5637 5637 5637 5637 5637 5637 5638 5638 5639 5641 5642 5643 5643 5644 5645 5646 5647 5649 5650 5650 5651 5652 5654 5656 5657 5659 5660 5662 5664 5666 5668 5669 5672 5676 5678 5679 5681 5684 5686 5689 5692 5694 5697 5701 5705 5708 5712 5714 5714 5716 5719 5722 5724 5726 5728 5729 5730 5731 5732 5733 5733 5734 5734 5733 5733 5733 5734 5735 5735 5735
5651 5651 5649 5647 5645 5643 5641 5640 5638 5636 5635 5633 5632 5631 5630 5629 5628 5628 5628 5629 5629 5629 5629 5630 5631 5632 5633 5634 5635 5636 5637 5638 5639 5640 5641 5643 5643 5645 5646 5648 5650 5652 5654 5656 5659 5661 5662 5664 5668 5671 5672 5674 5677 5679 5682 5686 5689 5691 5695 5698 5700 5704 5707 5708 5711 5714 5717 5719 5720 5722 5724 5726 5726 5726 5728 5728 5729 5729 5728 5728 5728 5729 5729 5730 5730
5646 5644 5642 5640 5638 5635 5634 5632 5631 5629 5627 5626 5624 5623 5622 5621 5620 5619 5619 5620 5620 5621 5621 5621 5622 5623 5624 5625 5626 5627 5628 5628 5629 5630 5631 5633 5634 5635 5637 5639 5642 5644 5646 5648 5651 5654 5655 5657 5659 5663 5666 5668 5671 5674 5677 5680 5682 5685 5688 5690 5693 5696 5700 5703 5705 5707 5709 5713 5715 5716 5718 5719 5720 5721 5723 5723 5723 5723 5723 5723 5724 5724 5724 5725 5724
5639 5638 5635 5633 5631 5629 5627 5625 5623 5622 5620 5618 5616 5615 5614 5612 5611 5611 5610 5611 5611 5612 5612 5612 5612 5613 5614 5614 5616 5618 5619 5619 5620 5620 5621 5622 5624 5626 5628 5630 5633 5636 5638 5640 5642 5645 5648 5649 5652 5656 5660 5661 5664 5668 5670 5672 5674 5677 5680 5683 5686 5690 5693 5696 5697 5698 5701 5705 5708 5708 5710 5713 5714 5715 5717 5718 5718 5719 5718 5718 5719 5719 5720 5720 5719
5633 5631 5628 5626 5624 5622 5620 5617 5616 5614 5612 5610 5609 5607 5606 5604 5603 5602 5601 5602 5602 5602 5603 5603 5603 5604 5604 5604 5606 5607 5609 5610 5611 5610 5611 5612 5614 5616 5619 5622 5624 5627 5629 5632 5635 5637 5640 5642 5645 5649 5652 5654 5656 5660 5662 5664 5666 5669 5673 5675 5678 5681 5685 5687 5689 5692 5696 5698 5699 5701 5705 5708 5709 5710 5711 5712 5713 5713 5713 5713 5714 5715 5715 5715 5714
5625 5623 5621 5619 5617 5615 5612 5610 5608 5607 5605 5603 5601 5599 5597 5596 5594 5593 5592 5592 5593 5593 5593 5593 5593 5594 5594 5594 5595 5596 5598 5600 5601 5602 5602 5602 5603 5606 5609 5612 5615 5618 5621 5624 5626 5628 5632 5635 5637 5641 5644 5647 5648 5651 5654 5657 5659 5662 5664 5667 5670 5673 5677 5681 5684 5687 5690 5691 5692 5695 5698 5700 5702 5705 5706 5706 5707 5708 5708 5709 5709 5710 5710 5710 5709
5617 5616 5614 5612 5610 5607 5605 5603 5601 5599 5597 5595 5592 5590 5588 5586 5585 5584 5583 5583 5583 5583 5583 5583 5583 5584 5584 5584 5585 5586 5587 5589 5591 5592 5592 5592 5594 5597 5599 5602 5605 5609 5614 5616 5617 5619 5623 5626 5629 5633 5636 5639 5641 5644 5647 5650 5653 5655 5657 5660 5663 5666 5670 5674 5677 5681 5684 5686 5687 5689 5690 5693 5697 5699 5700 5701 5702 5703 5703 5704 5704 5704 5705 5704 5704
5610 5608 5607 5604 5602 5600 5597 5595 5593 5591 5589 5586 5584 5581 5580 5577 5576 5575 5574 5573 5573 5573 5573 5574 5574 5574 5574 5574 5574 5575 5576 5578 5579 5581 5582 5583 5585 5587 5589 5592 5595 5600 5606 5607 5607 5610 5613 5616 5620 5625 5628 5631 5634 5637 5640 5643 5646 5648 5651 5654 5657 5660 5663 5667 5671 5674 5677 5681 5683 5684 5685 5689 5692 5693 5693 5695 5697 5697 5698 5698 5699 5699 5699 5699 5699
5603 5601 5599 5597 5594 5592 5589 5587 5584 5582 5580 5578 5575 5573 5571 5569 5567 5566 5565 5564 5563 5563 5563 5564 5564 5564 5564 5564 5564 5564 5565 5566 5567 5569 5571 5573 5575 5578 5579 5581 5585 5592 5596 5597 5597 5601 5604 5606 5611 5616 5620 5624 5627 5630 5633 5636 5638 5641 5646 5648 5650 5654 5658 5661 5664 5668 5672 5676 5679 5679 5681 5685 5686 5686 5688 5689 5691 5692 5692 5693 5694 5694 5694 5694 5693